Weather History for KEWB - December, 2011

Change the Weather History Date:

Wednesday, December 21, 2011

  Actual Average (KUUU) Record (KUUU)
Temperature  
Mean Temperature 44 °F -  
Max Temperature 57 °F 41 °F - (-1)
Min Temperature 30 °F 27 °F - (-1)
Degree Days  
Heating Degree Days 22    
Moisture  
Dew Point 48 °F    
Average Humidity 87    
Maximum Humidity 97    
Minimum Humidity 73    
Precipitation  
Precipitation 0.11 in - - ()
Sea Level Pressure  
Sea Level Pressure 29.92 in    
Wind  
Wind Speed 10 mph (South)    
Max Wind Speed 23 mph    
Max Gust Speed 41 mph    
Visibility 6 miles    
Events Rain    
Averages and records for this station are not official NWS values.
T = Trace of Precipitation, MM = Missing Value Source: NWS Daily Summary

Daily Weather History Graph

Daily Weather History Graph

Search for Another Location

Airport or City:

Trip Planner

Search our weather history database for the weather conditions in past years. The results will help you decide how hot, cold, wet, or windy it might be!

Date:

Astronomy

Dec. 21, 2011 Rise Set
Actual Time 7:07 AM EST 4:16 PM EST
Civil Twilight 6:35 AM EST 4:47 PM EST
Nautical Twilight 6:00 AM EST 5:23 PM EST
Astronomical Twilight 5:26 AM EST 5:56 PM EST
Moon 3:35 AM EST (12/21) 1:34 PM EST (12/21)
Length of Visible Light 10h 12m
Length of Day
9h 09m
Waning Crescent, 12% of the Moon is Illuminated
Dec 21
Waning Crescent
Dec 24
New
Jan 1
First Quarter
Jan 9
Full
Jan 16
Last Quarter

Hourly Weather History & Observations

Time (EST) Temp. Windchill Dew Point Humidity Pressure Visibility Wind Dir Wind Speed Gust Speed Precip Events Conditions
12:53 AM 30.9 °F 27.5 °F 26.1 °F 82% 30.20 in 10.0 mi ESE 3.5 mph - N/A   Overcast
1:53 AM 37.0 °F 33.3 °F 30.0 °F 76% 30.20 in 10.0 mi SE 4.6 mph - N/A   Overcast
2:21 AM 39.2 °F 33.6 °F 32.0 °F 75% 30.20 in 10.0 mi SSE 8.1 mph - N/A   Overcast
2:53 AM 41.0 °F 35.8 °F 33.1 °F 73% 30.18 in 10.0 mi SSE 8.1 mph - N/A   Overcast
3:32 AM 42.8 °F 38.0 °F 35.6 °F 76% 30.14 in 10.0 mi SSE 8.1 mph - N/A   Overcast
3:53 AM 43.0 °F 38.2 °F 36.0 °F 76% 30.15 in 10.0 mi South 8.1 mph - N/A   Overcast
4:15 AM 42.8 °F 36.6 °F 35.6 °F 76% 30.13 in 10.0 mi SSE 11.5 mph - N/A   Overcast
4:28 AM 42.8 °F 37.5 °F 37.4 °F 81% 30.13 in 10.0 mi SSE 9.2 mph - N/A   Overcast
4:53 AM 44.1 °F 40.8 °F 37.9 °F 79% 30.14 in 10.0 mi South 5.8 mph - N/A   Overcast
5:53 AM 45.0 °F 42.6 °F 37.9 °F 76% 30.14 in 10.0 mi South 4.6 mph - N/A   Overcast
6:10 AM 44.6 °F 41.4 °F 37.4 °F 76% 30.13 in 10.0 mi South 5.8 mph - N/A   Overcast
6:53 AM 46.0 °F 41.9 °F 41.0 °F 83% 30.11 in 10.0 mi South 8.1 mph - N/A   Overcast
7:53 AM 48.0 °F - 43.0 °F 83% 30.09 in 10.0 mi South 10.4 mph - N/A   Overcast
8:53 AM 50.0 °F - 44.1 °F 80% 30.08 in 10.0 mi South 9.2 mph - N/A   Overcast
9:22 AM 51.8 °F - 44.6 °F 76% 30.06 in 10.0 mi South 11.5 mph - N/A   Mostly Cloudy
9:53 AM 52.0 °F - 45.0 °F 77% 30.07 in 10.0 mi South 9.2 mph - N/A   Overcast
10:45 AM 53.6 °F - 48.2 °F 82% 30.03 in 10.0 mi South 11.5 mph 20.7 mph N/A   Overcast
10:53 AM 55.0 °F - 48.0 °F 77% 30.03 in 10.0 mi South 13.8 mph 23.0 mph N/A   Overcast
11:53 AM 53.6 °F - 48.2 °F 82% 29.98 in 10.0 mi South 8.1 mph - N/A Rain Light Rain
12:11 PM 53.6 °F - 50.0 °F 88% 29.96 in 2.0 mi South 10.4 mph - N/A Rain Light Rain
12:53 PM 54.0 °F - 50.0 °F 86% 29.94 in 2.0 mi SSW 11.5 mph - 0.02 in Rain Light Rain
1:00 PM 53.6 °F - 50.0 °F 88% 29.93 in 8.0 mi South 10.4 mph - 0.00 in   Overcast
1:16 PM 53.6 °F - 51.8 °F 94% 29.92 in 2.0 mi SSW 11.5 mph - 0.01 in Rain Light Rain
1:34 PM 53.6 °F - 51.8 °F 94% 29.91 in 5.0 mi South 11.5 mph - 0.01 in   Overcast
1:53 PM 55.0 °F - 52.0 °F 89% 29.90 in 5.0 mi South 12.7 mph 24.2 mph 0.01 in   Overcast
2:08 PM 55.4 °F - 51.8 °F 88% 29.89 in 2.5 mi South 17.3 mph 23.0 mph 0.00 in Rain Light Rain
2:17 PM 55.4 °F - 51.8 °F 88% 29.89 in 3.0 mi South 13.8 mph 23.0 mph 0.00 in Rain Light Rain
2:45 PM 55.4 °F - 53.6 °F 94% 29.87 in 3.0 mi South 13.8 mph 24.2 mph 0.00 in Rain Light Rain
2:53 PM 55.9 °F - 53.1 °F 90% 29.87 in 4.0 mi SSW 15.0 mph - 0.01 in Rain Light Rain
3:53 PM 55.9 °F - 54.0 °F 93% 29.84 in 5.0 mi SSW 16.1 mph 20.7 mph 0.00 in Rain Light Rain
4:07 PM 55.4 °F - 53.6 °F 94% 29.83 in 5.0 mi SSW 19.6 mph 26.5 mph 0.00 in   Overcast
4:53 PM 57.0 °F - 55.0 °F 93% 29.81 in 6.0 mi SSW 17.3 mph 27.6 mph 0.00 in Rain Light Rain
5:53 PM 57.9 °F - 55.0 °F 90% 29.79 in 9.0 mi SW 23.0 mph 41.4 mph 0.01 in Rain Light Rain
6:53 PM 57.0 °F - 55.0 °F 93% 29.78 in 6.0 mi SW 15.0 mph 31.1 mph 0.03 in Rain Light Rain
7:22 PM 55.4 °F - 53.6 °F 94% 29.77 in 6.0 mi SW 13.8 mph 27.6 mph 0.00 in   Overcast
7:53 PM 55.9 °F - 55.0 °F 97% 29.76 in 2.5 mi SW 15.0 mph 26.5 mph 0.01 in Rain Light Rain
8:00 PM 57.2 °F - 55.4 °F 94% 29.75 in 4.0 mi SW 19.6 mph 28.8 mph 0.00 in Rain Light Rain
8:53 PM 57.0 °F - 55.0 °F 93% 29.71 in 2.5 mi SSW 16.1 mph 23.0 mph 0.01 in Rain Light Rain
9:01 PM 57.2 °F - 55.4 °F 94% 29.72 in 3.0 mi SW 18.4 mph 26.5 mph 0.00 in   Overcast
9:09 PM 57.2 °F - 55.4 °F 94% 29.72 in 3.0 mi SW 17.3 mph 28.8 mph 0.00 in   Overcast
9:53 PM 57.0 °F - 55.0 °F 93% 29.71 in 3.0 mi SW 20.7 mph 27.6 mph 0.00 in   Overcast
10:53 PM 57.0 °F - 55.0 °F 93% 29.69 in 3.0 mi SW 19.6 mph 27.6 mph N/A   Overcast
11:05 PM 57.2 °F - 55.4 °F 94% 29.68 in 2.0 mi SW 18.4 mph 26.5 mph 0.00 in Rain Light Rain
11:41 PM 57.2 °F - 55.4 °F 94% 29.65 in 3.0 mi SW 18.4 mph 24.2 mph 0.01 in Rain Light Rain
11:48 PM 57.2 °F - 55.4 °F 94% 29.65 in 2.5 mi SW 19.6 mph 27.6 mph 0.01 in   Overcast
11:53 PM 57.0 °F - 55.0 °F 93% 29.64 in 2.5 mi SW 20.7 mph 28.8 mph 0.01 in   Overcast
11:56 PM 57.2 °F - 55.4 °F 94% 29.64 in 3.0 mi SW 16.1 mph 32.2 mph N/A   Overcast